Regional Weather Roundup
Issued by NWS

Home | Current Version | Previous Version | Text Only | Print | Product List | Glossary On
Versions: 1 2 3 4 5 6 7 8 9 10 11 12 13 14 15 16 17 18 19 20 21 22 23 24 25 26 27 28 29 30 31 32 33 34 35 36 37 38 39 40 41 42 43 44 45 46 47 48 49 50
819
ASUS43 KTOP 060608
RWRKS

WEATHER ROUNDUP FOR KANSAS
NATIONAL WEATHER SERVICE GOODLAND KS
100 AM CDT FRI MAY 06 2016

NOTE:  "FAIR" INDICATES FEW OR NO CLOUDS BELOW 12,000 FEET WITH NO
SIGNIFICANT WEATHER AND/OR OBSTRUCTIONS TO VISIBILITY.

KSZ001>006-013>018-027>032-041>047-060700-
NORTHWEST KANSAS

CITY           SKY/WX    TMP DP  RH WIND       PRES   REMARKS
GOODLAND       CLOUDY    56  48  74 S14       30.05R
6HR MIN TEMP:  56; 6HR MAX TEMP:  77;

HAYS           CLOUDY    54  43  66 SW3       30.05S
HILL CITY      CLOUDY    62  46  55 S9        30.04R
6HR MIN TEMP:  60; 6HR MAX TEMP:  79;

RUSSELL        CLEAR     59  45  59 S12       30.03S
6HR MIN TEMP:  57; 6HR MAX TEMP:  77;

$$

KSZ061>065-074>080-084>089-060700-
SOUTHWEST KANSAS

CITY           SKY/WX    TMP DP  RH WIND       PRES   REMARKS
DODGE CITY     CLEAR     56  43  61 S13       30.06S
6HR MIN TEMP:  56; 6HR MAX TEMP:  75;

ELKHART          N/A     57  46  66 SE14        N/A
GARDEN CITY    CLEAR     57  45  64 SE12      30.05S
6HR MIN TEMP:  57; 6HR MAX TEMP:  79;

GREAT BEND     CLEAR     55  43  62 S7        30.06R
LIBERAL        CLEAR     59  45  58 SE9       30.06S
PRATT          CLEAR     57  43  58 SE6       30.07S
6HR MIN TEMP:  56; 6HR MAX TEMP:  75;

$$

KSZ066>073-081>083-090>101-060700-
SOUTHEAST KANSAS

CITY           SKY/WX    TMP DP  RH WIND       PRES   REMARKS
CHANUTE        CLEAR     50  45  83 E5        30.07R
6HR MIN TEMP:  50; 6HR MAX TEMP:  74;

COFFEYVILLE    CLEAR     54  50  86 CALM      30.07R
6HR MIN TEMP:  53; 6HR MAX TEMP:  75;

HUTCHINSON     CLEAR     48  43  82 E3        30.06S
6HR MIN TEMP:  48; 6HR MAX TEMP:  78;

MEDICINE LODGE   N/A     60  47  61 SE7       30.06R
NEWTON         CLEAR     55  39  54 SE7       30.10R
PARSONS        CLEAR     51  49  92 CALM      30.08R
6HR MIN TEMP:  50; 6HR MAX TEMP:  75;

WICHITA INTL   PTCLDY    59  45  59 S5        30.06S
6HR MIN TEMP:  58; 6HR MAX TEMP:  79;

WICHITA JABRA  CLEAR     55  44  66 SE5       30.07R
6HR MIN TEMP:  54; 6HR MAX TEMP:  77;

WICHITA MCCONL CLEAR     60  43  53 S7        30.07S
WINFIELD       CLEAR     52  46  80 CALM      30.43F
6HR MIN TEMP:  52; 6HR MAX TEMP:  78;

$$

KSZ007>012-019>026-033>040-048>060-102>105-060700-
NORTHEAST KANSAS

CITY           SKY/WX    TMP DP  RH WIND       PRES   REMARKS
CONCORDIA      CLEAR     60  43  53 S12       30.04S
6HR MIN TEMP:  59; 6HR MAX TEMP:  75;

EMPORIA        CLEAR     55  46  71 S7        30.06S
6HR MIN TEMP:  53; 6HR MAX TEMP:  74;

LAWRENCE       CLEAR     49  45  86 CALM      30.06R
6HR MIN TEMP:  47; 6HR MAX TEMP:  73;

MANHATTAN      CLEAR     50  45  83 CALM      30.06R
6HR MIN TEMP:  50; 6HR MAX TEMP:  78;

MARYSVILLE     CLEAR     54  45  71 S5        30.05R
OLATHE IND     CLEAR     52  43  71 S3        30.07R
6HR MIN TEMP:  52; 6HR MAX TEMP:  71;

OLATHE EXE     CLEAR     54  44  69 CALM      30.06S
6HR MIN TEMP:  53; 6HR MAX TEMP:  71;

SALINA         CLEAR     51  47  86 S5        30.05S
6HR MIN TEMP:  51; 6HR MAX TEMP:  79;

TOPEKA BILLARD CLEAR     53  50  89 CALM      30.06R
6HR MIN TEMP:  53; 6HR MAX TEMP:  75;

TOPEKA FORBES  CLEAR     53  46  77 CALM      30.06R
6HR MIN TEMP:  51; 6HR MAX TEMP:  75;

$$




USA.gov is the U.S. government's official web portal to all federal, state and local government web resources and services.